TimeEDT,TemperatureF,Dew PointF,Humidity,Sea Level PressureIn,VisibilityMPH,Wind Direction,Wind SpeedMPH,Gust SpeedMPH,PrecipitationIn,Events,Conditions,WindDirDegrees,DateUTC
12:53 AM,3.9,-11.9,48,30.18,10.0,NW,13.8,24.2,N/A,,Clear,310,2013-03-18 04:53:00
1:53 AM,3.0,-11.0,52,30.20,10.0,NW,10.4,21.9,N/A,,Clear,310,2013-03-18 05:53:00
2:53 AM,3.0,-11.0,52,30.21,10.0,WNW,10.4,-,N/A,,Clear,300,2013-03-18 06:53:00
3:53 AM,1.9,-9.9,58,30.22,10.0,NW,11.5,-,N/A,,Clear,310,2013-03-18 07:53:00
4:53 AM,1.9,-9.9,58,30.24,10.0,WNW,11.5,-,N/A,,Clear,300,2013-03-18 08:53:00
5:53 AM,1.0,-9.9,60,30.25,10.0,NW,12.7,-,N/A,,Clear,310,2013-03-18 09:53:00
6:53 AM,1.9,-9.0,60,30.26,10.0,NW,12.7,-,N/A,,Clear,310,2013-03-18 10:53:00
7:53 AM,3.0,-8.0,60,30.28,10.0,NW,16.1,-,N/A,,Clear,310,2013-03-18 11:53:00
8:53 AM,5.0,-7.1,58,30.30,10.0,NW,16.1,26.5,N/A,,Clear,320,2013-03-18 12:53:00
9:53 AM,8.1,-7.1,50,30.30,10.0,NNW,18.4,27.6,N/A,,Clear,330,2013-03-18 13:53:00
10:53 AM,10.0,-6.0,48,30.30,10.0,NW,15.0,27.6,N/A,,Clear,310,2013-03-18 14:53:00
11:53 AM,12.9,-6.0,43,30.29,10.0,WNW,17.3,26.5,N/A,,Clear,290,2013-03-18 15:53:00
12:53 PM,16.0,-4.0,41,30.28,10.0,NW,19.6,25.3,N/A,,Clear,310,2013-03-18 16:53:00
1:53 PM,18.0,-8.0,31,30.27,10.0,NW,17.3,23.0,N/A,,Clear,310,2013-03-18 17:53:00
2:53 PM,19.0,-7.1,31,30.27,10.0,WNW,19.6,27.6,N/A,,Clear,300,2013-03-18 18:53:00
3:53 PM,19.9,-6.0,32,30.25,10.0,WNW,15.0,23.0,N/A,,Clear,300,2013-03-18 19:53:00
4:53 PM,19.9,-6.0,32,30.25,10.0,WNW,13.8,19.6,N/A,,Clear,300,2013-03-18 20:53:00
5:53 PM,19.9,-7.1,30,30.27,10.0,NW,13.8,-,N/A,,Clear,320,2013-03-18 21:53:00
6:53 PM,18.0,-7.1,33,30.27,10.0,NW,9.2,-,N/A,,Clear,310,2013-03-18 22:53:00
7:53 PM,16.0,-7.1,36,30.28,10.0,NW,4.6,-,N/A,,Clear,320,2013-03-18 23:53:00
8:53 PM,15.1,-6.0,39,30.28,10.0,NNW,8.1,-,N/A,,Clear,330,2013-03-19 00:53:00
9:53 PM,12.9,-4.0,47,30.29,10.0,NNW,6.9,-,N/A,,Clear,340,2013-03-19 01:53:00
10:53 PM,14.0,-4.0,45,30.31,10.0,NW,8.1,-,N/A,,Clear,310,2013-03-19 02:53:00
11:53 PM,14.0,-2.9,47,30.31,10.0,Calm,Calm,-,N/A,,Clear,0,2013-03-19 03:53:00